This is the latest recevied weather packets stored in our database for station/object K5EAA-13. If no packets are shown the sender has not sent any weather packets the latest 10 day(s).
| Time | Temp. | Humidity | Pressure | Rain* | Wind** | Luminosity | Snow |
|---|---|---|---|---|---|---|---|
| 1787833495 | 24.44° C | 82% | 1014.9 hPa | 0 mm | - | 26 W/m² | - |
| 1787833191 | 24.44° C | 82% | 1014.8 hPa | 0 mm | - | 19 W/m² | - |
| 1787832887 | 24.44° C | 83% | 1014.6 hPa | 0 mm | - | 14 W/m² | - |
| 1787832583 | 24.44° C | 83% | 1014.7 hPa | 0 mm | - | 11 W/m² | - |
| 1787832281 | 24.44° C | 83% | 1014.6 hPa | 0 mm | - | 7 W/m² | - |
| 1787831979 | 24.44° C | 83% | 1014.6 hPa | 0 mm | - | 4 W/m² | - |
| 1787831674 | 23.89° C | 83% | 1014.5 hPa | 0 mm | - | 2 W/m² | - |
| 1787831373 | 24.44° C | 83% | 1014.5 hPa | 0 mm | - | 1 W/m² | - |
| 1787831071 | 24.44° C | 82% | 1014.2 hPa | 0 mm | - | 0 W/m² | - |
| 1787830769 | 24.44° C | 82% | 1014.2 hPa | 0 mm | - | 0 W/m² | - |
| 1787830468 | 24.44° C | 81% | 1014.2 hPa | 0 mm | - | 0 W/m² | - |
| 1787830168 | 25° C | 81% | 1014.2 hPa | 0 mm | - | 0 W/m² | - |
| 1787829862 | 25° C | 80% | 1013.7 hPa | 0 mm | - | 0 W/m² | - |
| 1787829561 | 25° C | 80% | 1013.8 hPa | 0 mm | - | 0 W/m² | - |
| 1787829258 | 25° C | 80% | 1013.6 hPa | 0 mm | - | 0 W/m² | - |
| 1787828953 | 25° C | 80% | 1013.6 hPa | 0 mm | - | 0 W/m² | - |
| 1787828650 | 25° C | 80% | 1013.8 hPa | 0 mm | - | 0 W/m² | - |
| 1787828344 | 25° C | 80% | 1013.8 hPa | 0 mm | - | 0 W/m² | - |
| 1787828043 | 25° C | 80% | 1013.7 hPa | 0 mm | - | 0 W/m² | - |
| 1787827738 | 25° C | 79% | 1013.8 hPa | 0 mm | - | 0 W/m² | - |
| 1787827433 | 25.56° C | 79% | 1013.8 hPa | 0 mm | - | 0 W/m² | - |
| 1787827133 | 25.56° C | 79% | 1013.6 hPa | 0 mm | - | 0 W/m² | - |
| 1787826832 | 25.56° C | 78% | 1013.7 hPa | 0 mm | - | 0 W/m² | - |
| 1787826527 | 25.56° C | 78% | 1013.7 hPa | 0 mm | - | 0 W/m² | - |
| 1787826224 | 26.11° C | 77% | 1013.7 hPa | 0 mm | - | 0 W/m² | - |
* Rain latest hour (hover to see other rain measurements)
** Current wind speed in m/s (hover to see current wind gust speed)